| time (UTC) | temp F | wind direction | speed MPH | gust MPH | rain 1hr in | rain 24hr in | rain mn in | humidity % | barometer mb |
| 20260904154600 | 55 | 128 | 0.0 | 5.0 | 0.00 | 0.13 | 0.04 | 72 | 1012.7 |
| 20260904153111 | 55 | 206 | 0.0 | 3.0 | 0.00 | 0.13 | 0.04 | 71 | 1012.5 |
| 20260904151552 | 54 | 211 | 0.0 | 2.0 | 0.00 | 0.13 | 0.04 | 71 | 1012.2 |
| 20260904150053 | 54 | 211 | 0.0 | 1.0 | 0.00 | 0.13 | 0.04 | 71 | 1012.0 |
| 20260904144601 | 53 | 335 | 0.0 | 0.0 | 0.01 | 0.13 | 0.04 | 71 | 1011.9 |
| 20260904143108 | 53 | 88 | 0.0 | 0.0 | 0.01 | 0.13 | 0.04 | 71 | 1011.9 |
| 20260904141547 | 53 | 295 | 0.0 | 0.0 | 0.01 | 0.13 | 0.04 | 72 | 1011.8 |
| 20260904140046 | 53 | 295 | 0.0 | 0.0 | 0.03 | 0.20 | 0.04 | 72 | 1011.6 |
| 20260904134544 | 53 | 270 | 0.0 | 0.0 | 0.02 | 0.19 | 0.03 | 73 | 1011.5 |
| 20260904133045 | 54 | 27 | 0.0 | 0.0 | 0.03 | 0.19 | 0.03 | 73 | 1011.3 |
| 20260904131542 | 54 | 348 | 0.0 | 1.0 | 0.03 | 0.19 | 0.03 | 73 | 1011.3 |
| 20260904130042 | 54 | 80 | 0.0 | 1.0 | 0.01 | 0.25 | 0.01 | 73 | 1011.3 |
| 20260904124539 | 54 | 28 | 0.0 | 0.0 | 0.01 | 0.25 | 0.01 | 72 | 1011.1 |
| 20260904123043 | 54 | 178 | 0.0 | 3.0 | 0.00 | 0.24 | 0.00 | 71 | 1011.1 |
| 20260904121537 | 53 | 86 | 0.0 | 1.0 | 0.00 | 0.24 | 0.00 | 70 | 1011.0 |
| 20260904120044 | 53 | 133 | 0.0 | 0.0 | 0.00 | 0.25 | 0.00 | 70 | 1010.9 |
| 20260904114533 | 53 | 63 | 0.0 | 0.0 | 0.00 | 0.25 | 0.00 | 71 | 1010.7 |
| 20260904113035 | 53 | 63 | 0.0 | 0.0 | 0.00 | 0.25 | 0.00 | 70 | 1010.6 |
| 20260904111530 | 53 | 36 | 0.0 | 0.0 | 0.00 | 0.25 | 0.00 | 70 | 1010.5 |
| 20260904110028 | 52 | 36 | 0.0 | 0.0 | 0.00 | 0.25 | 0.00 | 70 | 1010.4 |
| 20260904104528 | 52 | 360 | 0.0 | 0.0 | 0.00 | 0.25 | 0.00 | 70 | 1010.4 |
| 20260904103027 | 52 | 335 | 0.0 | 0.0 | 0.00 | 0.25 | 0.00 | 71 | 1010.3 |
| 20260904101526 | 52 | 314 | 0.0 | 0.0 | 0.00 | 0.25 | 0.00 | 71 | 1010.2 |
| 20260904100025 | 52 | 314 | 0.0 | 0.0 | 0.00 | 0.25 | 0.00 | 71 | 1010.2 |
| 20260904094523 | 52 | 314 | 0.0 | 0.0 | 0.00 | 0.25 | 0.00 | 71 | 1010.1 |
| 20260904093023 | 52 | 227 | 0.0 | 0.0 | 0.00 | 0.25 | 0.00 | 71 | 1010.1 |
| 20260904091522 | 52 | 227 | 0.0 | 0.0 | 0.00 | 0.25 | 0.00 | 72 | 1010.0 |
| 20260904090024 | 52 | 336 | 0.0 | 1.0 | 0.00 | 0.25 | 0.00 | 72 | 1010.0 |
| 20260904084523 | 53 | 290 | 0.0 | 0.0 | 0.00 | 0.25 | 0.00 | 72 | 1010.1 |
| 20260904083018 | 53 | 216 | 0.0 | 0.0 | 0.00 | 0.25 | 0.00 | 71 | 1010.0 |
| 20260904081516 | 53 | 216 | 0.0 | 0.0 | 0.00 | 0.25 | 0.00 | 71 | 1010.1 |
| 20260904080015 | 53 | 216 | 0.0 | 0.0 | 0.00 | 0.25 | 0.00 | 72 | 1010.0 |
| 20260904074516 | 53 | 216 | 0.0 | 0.0 | 0.00 | 0.25 | 0.00 | 72 | 1010.0 |
| 20260904073012 | 53 | 216 | 0.0 | 0.0 | 0.00 | 0.25 | 0.00 | 72 | 1010.0 |
| 20260904071512 | 53 | 216 | 0.0 | 0.0 | 0.00 | 0.25 | 0.00 | 72 | 1010.0 |
| 20260904070014 | 53 | 216 | 0.0 | 0.0 | 0.00 | 0.25 | 0.25 | 73 | 1010.0 |
| 20260904064510 | 53 | 216 | 0.0 | 0.0 | 0.00 | 0.25 | 0.25 | 74 | 1010.0 |
| 20260904063009 | 53 | 216 | 0.0 | 0.0 | 0.00 | 0.25 | 0.25 | 74 | 1010.2 |
| 20260904061508 | 53 | 216 | 0.0 | 0.0 | 0.00 | 0.25 | 0.25 | 75 | 1010.1 |
| 20260904060011 | 54 | 216 | 0.0 | 0.0 | 0.00 | 0.25 | 0.25 | 76 | 1010.1 |
| 20260904054518 | 54 | 216 | 0.0 | 0.0 | 0.00 | 0.25 | 0.25 | 76 | 1010.1 |
| 20260904053005 | 54 | 216 | 0.0 | 0.0 | 0.00 | 0.25 | 0.25 | 75 | 1010.1 |
| 20260904051505 | 55 | 216 | 0.0 | 0.0 | 0.00 | 0.25 | 0.25 | 76 | 1010.1 |
| 20260904050006 | 55 | 216 | 0.0 | 0.0 | 0.00 | 0.25 | 0.25 | 75 | 1010.1 |
| 20260904044504 | 55 | 216 | 0.0 | 0.0 | 0.00 | 0.25 | 0.25 | 76 | 1010.1 |
| 20260904043002 | 55 | 91 | 0.0 | 0.0 | 0.00 | 0.25 | 0.25 | 76 | 1010.2 |
| 20260904041502 | 55 | 91 | 0.0 | 0.0 | 0.00 | 0.25 | 0.25 | 78 | 1010.1 |
| 20260904040001 | 56 | 90 | 0.0 | 0.0 | 0.00 | 0.25 | 0.25 | 78 | 1010.1 |
| 20260904034502 | 56 | 90 | 0.0 | 0.0 | 0.00 | 0.25 | 0.25 | 79 | 1010.0 |
| 20260904033101 | 56 | 91 | 0.0 | 0.0 | 0.00 | 0.25 | 0.25 | 79 | 1009.9 |
| 20260904031602 | 56 | 51 | 0.0 | 0.0 | 0.00 | 0.25 | 0.25 | 80 | 1009.7 |
| 20260904024600 | 57 | 110 | 0.0 | 1.0 | 0.00 | 0.25 | 0.25 | 80 | 1009.3 |
| 20260904023058 | 58 | 141 | 0.0 | 1.0 | 0.00 | 0.25 | 0.25 | 80 | 1009.3 |
| 20260904021610 | 59 | 141 | 0.0 | 3.0 | 0.00 | 0.25 | 0.25 | 77 | 1009.3 |
| 20260904020059 | 59 | 155 | 2.0 | 4.0 | 0.00 | 0.25 | 0.25 | 77 | 1009.4 |
| 20260904014606 | 60 | 201 | 5.0 | 10.0 | 0.00 | 0.25 | 0.25 | 74 | 1009.4 |
| 20260904013120 | 60 | 201 | 2.0 | 5.0 | 0.00 | 0.25 | 0.25 | 75 | 1009.2 |
| 20260904011635 | 60 | 207 | 2.0 | 6.0 | 0.00 | 0.25 | 0.25 | 73 | 1009.1 |
| 20260904010054 | 60 | 197 | 3.0 | 7.0 | 0.00 | 0.25 | 0.25 | 73 | 1009.1 |
| 20260904004553 | 60 | 86 | 0.0 | 4.0 | 0.00 | 0.25 | 0.25 | 74 | 1009.3 |
| 20260904003053 | 60 | 143 | 2.0 | 7.0 | 0.00 | 0.25 | 0.25 | 74 | 1009.3 |
| 20260904001552 | 61 | 175 | 1.0 | 5.0 | 0.01 | 0.25 | 0.25 | 75 | 1009.4 |
| 20260904000050 | 60 | 196 | 2.0 | 6.0 | 0.01 | 0.25 | 0.25 | 73 | 1009.4 |
| 20260903234548 | 60 | 152 | 1.0 | 4.0 | 0.01 | 0.25 | 0.25 | 78 | 1009.4 |
| 20260903233048 | 59 | 168 | 5.0 | 9.0 | 0.01 | 0.25 | 0.25 | 79 | 1009.4 |
| 20260903231548 | 59 | 86 | 2.0 | 9.0 | 0.00 | 0.24 | 0.24 | 79 | 1009.4 |
| 20260903230046 | 59 | 227 | 5.0 | 13.0 | 0.00 | 0.24 | 0.24 | 78 | 1009.7 |
| 20260903224545 | 59 | 180 | 6.0 | 12.0 | 0.00 | 0.24 | 0.24 | 78 | 1009.8 |
| 20260903223046 | 59 | 211 | 4.0 | 7.0 | 0.00 | 0.24 | 0.24 | 79 | 1009.8 |
| 20260903221544 | 59 | 175 | 2.0 | 9.0 | 0.00 | 0.24 | 0.24 | 80 | 1009.8 |
| 20260903220047 | 58 | 119 | 3.0 | 7.0 | 0.01 | 0.24 | 0.24 | 80 | 1009.8 |
| 20260903214543 | 58 | 181 | 1.0 | 3.0 | 0.02 | 0.24 | 0.24 | 80 | 1009.9 |
| 20260903213041 | 58 | 149 | 2.0 | 5.0 | 0.02 | 0.24 | 0.24 | 80 | 1010.1 |
| 20260903211548 | 58 | 165 | 1.0 | 7.0 | 0.02 | 0.24 | 0.24 | 81 | 1010.1 |
| 20260903210052 | 58 | 174 | 5.0 | 13.0 | 0.01 | 0.25 | 0.23 | 80 | 1010.0 |
| 20260903204549 | 59 | 188 | 7.0 | 16.0 | 0.00 | 0.24 | 0.22 | 80 | 1009.8 |
| 20260903203037 | 60 | 205 | 5.0 | 12.0 | 0.00 | 0.24 | 0.22 | 80 | 1009.6 |
| 20260903201537 | 59 | 197 | 2.0 | 13.0 | 0.00 | 0.24 | 0.22 | 80 | 1009.6 |
| 20260903200037 | 59 | 204 | 7.0 | 15.0 | 0.00 | 0.28 | 0.22 | 80 | 1009.6 |
| 20260903194537 | 59 | 163 | 5.0 | 12.0 | 0.00 | 0.28 | 0.22 | 80 | 1009.5 |
| 20260903193035 | 59 | 232 | 2.0 | 7.0 | 0.00 | 0.28 | 0.22 | 81 | 1009.6 |
| 20260903191535 | 59 | 227 | 5.0 | 15.0 | 0.00 | 0.28 | 0.22 | 80 | 1009.9 |
| 20260903190036 | 60 | 122 | 5.0 | 14.0 | 0.00 | 0.32 | 0.22 | 80 | 1009.9 |
| 20260903184533 | 59 | 206 | 5.0 | 14.0 | 0.00 | 0.32 | 0.22 | 81 | 1009.9 |
| 20260903183029 | 58 | 155 | 6.0 | 11.0 | 0.00 | 0.32 | 0.22 | 80 | 1009.8 |
| 20260903181528 | 58 | 118 | 2.0 | 6.0 | 0.00 | 0.32 | 0.22 | 79 | 1009.5 |
| 20260903180027 | 58 | 188 | 2.0 | 8.0 | 0.00 | 0.39 | 0.22 | 78 | 1009.7 |
| 20260903174525 | 57 | 91 | 2.0 | 7.0 | 0.00 | 0.39 | 0.22 | 77 | 1009.8 |
| 20260903173023 | 56 | 143 | 0.0 | 2.0 | 0.01 | 0.39 | 0.22 | 76 | 1009.8 |
| 20260903171523 | 56 | 109 | 0.0 | 3.0 | 0.01 | 0.39 | 0.22 | 75 | 1009.9 |
| 20260903170033 | 55 | 220 | 2.0 | 5.0 | 0.01 | 0.40 | 0.22 | 74 | 1009.9 |
| 20260903164523 | 55 | 166 | 0.0 | 5.0 | 0.03 | 0.40 | 0.22 | 74 | 1009.9 |
| 20260903163033 | 55 | 158 | 1.0 | 6.0 | 0.03 | 0.39 | 0.21 | 73 | 1010.0 |
| 20260903161519 | 54 | 177 | 0.0 | 4.0 | 0.05 | 0.39 | 0.21 | 73 | 1009.9 |
| 20260903160019 | 54 | 197 | 0.0 | 6.0 | 0.05 | 0.39 | 0.21 | 74 | 1010.0 |